Regional Weather Roundup
Issued by NWS

Home | Current Version | Previous Version | Text Only | Print | Product List | Glossary Off
Versions: 1 2 3 4 5 6 7 8 9 10 11 12 13 14 15 16 17 18 19 20 21 22 23 24 25 26 27 28 29 30 31 32 33 34 35 36 37 38 39 40 41 42 43 44 45 46 47 48 49 50

446
ASUS43 KTOP 311008
RWRKS

WEATHER ROUNDUP FOR KANSAS
NATIONAL WEATHER SERVICE GOODLAND KS
500 AM CDT TUE MAY 31 2016

NOTE:  "FAIR" INDICATES FEW OR NO CLOUDS BELOW 12,000 FEET WITH NO
SIGNIFICANT WEATHER AND/OR OBSTRUCTIONS TO VISIBILITY.

KSZ001>006-013>018-027>032-041>047-311100-
NORTHWEST KANSAS

CITY           SKY/WX    TMP DP  RH WIND       PRES   REMARKS
GOODLAND       CLEAR     49  47  93 CALM      30.02R
HAYS           CLOUDY    59  52  77 NE12      29.91R
HILL CITY      CLOUDY    59  56  89 N8        29.97R
RUSSELL        CLOUDY    60  58  92 E9        29.92R
$$

KSZ061>065-074>080-084>089-311100-
SOUTHWEST KANSAS

CITY           SKY/WX    TMP DP  RH WIND       PRES   REMARKS
DODGE CITY     CLOUDY    57  55  93 S5        29.94R
ELKHART          N/A     61  56  84 E8          N/A
GARDEN CITY    CLOUDY    57  54  89 S12       29.98R
GREAT BEND     CLOUDY    61  54  77 S18       29.93F
LIBERAL        CLOUDY    59  50  72 E12       30.00R
PRATT          RAIN      59  55  87 NE10      29.94F
$$

KSZ066>073-081>083-090>101-311100-
SOUTHEAST KANSAS

CITY           SKY/WX    TMP DP  RH WIND       PRES   REMARKS
CHANUTE        CLOUDY    62  60  93 CALM      29.92F FOG
COFFEYVILLE    CLOUDY    62  61  96 CALM      29.92F FOG
HUTCHINSON     TSTM      61  60  97 N7        29.96F FOG
MEDICINE LODGE   N/A     63  56  78 N20G26    29.91F
NEWTON         CLOUDY    63  57  82 NW5       29.97S
PARSONS        FOG       61  60  97 CALM      29.93F VSB 1
WICHITA INTL   CLOUDY    66  63  90 N10       29.94R THUNDER
WICHITA JABRA  CLOUDY    63  62  97 N9        29.95R
WICHITA MCCONL CLOUDY    64  62  94 N9        29.94R
WINFIELD       CLOUDY    63  62  97 E5        29.91F
$$

KSZ007>012-019>026-033>040-048>060-102>105-311100-
NORTHEAST KANSAS

CITY           SKY/WX    TMP DP  RH WIND       PRES   REMARKS
CONCORDIA      CLOUDY    60  57  89 S8        29.91R
EMPORIA        CLOUDY    60  59  96 CALM      29.94R
LAWRENCE       PTCLDY    60  59  96 CALM      29.94R
MANHATTAN      CLOUDY    65  60  84 SW7       29.91R
MARYSVILLE     CLOUDY    63  59  88 SW5       29.88R
OLATHE IND     CLOUDY    62  61  96 S3        29.95R
OLATHE EXE     CLOUDY    61  60  97 CALM      29.95R
SALINA         LGT RAIN  63  60  90 SW12      29.91F
TOPEKA BILLARD CLOUDY    63  60  90 CALM      29.94R
TOPEKA FORBES  CLOUDY    61  59  93 CALM      29.94R
$$




USA.gov is the U.S. government's official web portal to all federal, state and local government web resources and services.